Flight Information

DEPARTURE
CARLSBAD, CA
Elevation:
330
Runways:
6/24 - 4897x150 - ASPH-G
H1 - 40x50 - CONC-G
Active PE Departure:
24
Current PE ATIS:
G
Altimeter:
29.85
Remarks:
ATIS:
120.15 760-438-2117
Clearance Delivery:
134.85
Ground:
121.8
Tower:
118.6
DESTINATION
,
Elevation:
TPA:
1000 (est.)


6754 NM74° True-13° Var60° HDG

Flight Plan:
(click to file on line)

1. Type
2. Aircraft Identification
3. Aircraft Type / Special Equipment
4. True Airspeed
kts
5. Departure Airport
(ICAO code)
6. Arriving Airport
(ICAO code)
7. Cruising Altitude
ft
8. Alternate Airport
(ICAO code)
9. Route of Flight
10. Remarks


00:00:00 Departure ATIS: Destination ATIS:

Clearance Limit:
Route:
Altitude: Expect in minutes
Frequency:
Transponder: (7500 Hijack / 7600 Lost Comms / 7700 Emergency)


KCRQ 110253Z 21003KT 8SM CLR 15/12 A2985 RMK AO2 SLP106 T01500117 53005
Time: 2021-04-11T02:53:00Z
1618110775
Winds: 210 @ 3 kts
Visibility: 8.0 sm
Clouds (AGL): CLR
Temperature: 15.0 C
Dew Point: 11.7 C
Pressure: 29.84941 in Hgbr


Notes:

Data extracted from FAA Digital Chart Supplement. Effective: 0901Z Thursday, Feb 25, 2021 to 0901Z Thursday, APR 22, 2021
Current ATIS data is provided courtisy of PilotEdge.